Total_Precipitation_Accumulation
2.00 1.91 1.42 0.84 0.68 0.51 0.46 0.49 0.48 0.40 0.43 0.54 0.58 0.60 0.65 0.67 0.66 0.69 0.73 0.73 0.73 0.83 1.12 1.25 1.33 1.64 1.92 2.07 2.24 2.41 2.55 2.66 2.94 3.14 3.15 3.05 2.90 2.64 2.53 2.50 2.42 2.34 2.28 2.38
1.75 1.33 0.81 0.62 0.62 0.60 0.57 0.58 0.55 0.45 0.41 0.54 0.58 0.59 0.55 0.55 0.65 0.74 0.74 0.79 0.83 0.83 1.01 1.14 1.22 1.39 1.61 1.84 2.07 2.31 2.45 2.57 2.61 2.69 2.93 3.09 3.15 2.97 2.70 2.54 2.46 2.36 2.29 2.31
1.30 0.81 0.63 0.73 0.72 0.71 0.61 0.53 0.48 0.48 0.50 0.57 0.59 0.65 0.53 0.52 0.58 0.65 0.69 0.74 0.77 0.80 0.89 1.00 1.13 1.34 1.45 1.60 1.86 2.15 2.32 2.47 2.52 2.58 2.87 3.10 3.27 3.10 2.77 2.44 2.30 2.33 2.31 2.32
1.15 0.71 0.69 0.80 0.67 0.59 0.58 0.36 0.36 0.42 0.61 0.71 0.65 0.87 0.59 0.54 0.57 0.63 0.68 0.67 0.69 0.74 0.76 0.82 0.95 1.14 1.27 1.42 1.62 1.81 2.03 2.20 2.41 2.53 2.63 2.70 2.83 2.85 2.58 2.44 2.34 2.38 2.42 2.39
1.11 0.76 0.77 0.81 0.57 0.48 0.48 0.32 0.38 0.43 0.59 0.69 0.54 0.76 0.64 0.44 0.50 0.62 0.71 0.69 0.69 0.74 0.76 0.76 0.91 1.10 1.18 1.28 1.54 1.70 1.79 1.99 2.21 2.37 2.44 2.59 2.61 2.65 2.71 2.66 2.55 2.46 2.43 2.38
0.83 0.67 0.79 0.68 0.51 0.48 0.50 0.49 0.55 0.56 0.81 0.89 0.43 0.57 0.62 0.47 0.54 0.56 0.57 0.62 0.68 0.74 0.80 0.86 1.00 1.10 1.15 1.22 1.39 1.61 1.62 1.72 1.90 2.16 2.38 2.44 2.41 2.46 2.50 2.49 2.44 2.42 2.42 2.38
1.06 0.80 0.67 0.62 0.72 0.64 0.64 0.83 1.18 1.24 1.15 0.65 0.28 0.45 0.64 0.48 0.48 0.51 0.53 0.56 0.61 0.70 0.75 0.85 0.99 1.00 1.05 1.16 1.27 1.42 1.52 1.60 1.70 1.88 2.10 2.28 2.38 2.40 2.41 2.42 2.38 2.28 2.19 2.11
1.06 1.08 0.69 0.60 0.73 0.76 0.62 0.68 0.90 0.89 0.55 0.36 0.28 0.44 0.56 0.45 0.39 0.36 0.37 0.45 0.54 0.62 0.65 0.70 0.83 0.91 0.98 1.09 1.16 1.19 1.26 1.32 1.38 1.48 1.63 1.84 2.12 2.25 2.18 2.17 2.13 2.09 2.01 1.97
0.75 0.72 0.44 0.39 0.43 0.51 0.66 0.64 0.50 0.79 0.58 0.47 0.36 0.39 0.42 0.33 0.32 0.31 0.35 0.43 0.55 0.65 0.69 0.68 0.75 0.81 0.86 0.98 1.10 1.10 1.10 1.15 1.22 1.26 1.35 1.48 1.72 1.89 1.93 1.95 1.89 1.79 1.76 1.81
0.55 0.60 0.40 0.34 0.44 0.47 0.48 0.50 0.64 1.09 0.98 0.67 0.39 0.37 0.53 0.41 0.33 0.35 0.42 0.47 0.57 0.70 0.71 0.67 0.71 0.76 0.77 0.85 0.98 1.02 1.04 1.07 1.19 1.23 1.26 1.33 1.43 1.53 1.69 1.77 1.66 1.60 1.58 1.60
0.45 0.62 0.51 0.43 0.49 0.43 0.38 0.52 0.65 0.79 0.78 0.81 0.53 0.52 0.57 0.49 0.42 0.41 0.45 0.52 0.63 0.68 0.72 0.74 0.76 0.78 0.82 0.87 0.92 0.93 1.00 1.05 1.16 1.19 1.15 1.16 1.22 1.26 1.35 1.44 1.47 1.42 1.43 1.42
0.36 0.56 0.53 0.34 0.24 0.24 0.35 0.40 0.55 0.92 0.73 0.60 0.62 0.62 0.48 0.42 0.42 0.42 0.44 0.49 0.57 0.58 0.65 0.73 0.74 0.75 0.84 0.88 0.87 0.84 0.89 0.95 1.07 1.10 1.04 1.04 1.08 1.12 1.17 1.20 1.28 1.30 1.31 1.32
0.57 0.83 0.80 0.56 0.48 0.44 0.50 0.38 0.40 0.69 0.92 0.72 0.71 0.68 0.46 0.36 0.36 0.38 0.42 0.47 0.48 0.47 0.50 0.56 0.62 0.63 0.67 0.70 0.72 0.79 0.79 0.78 0.84 0.88 0.85 0.84 0.84 0.90 0.99 1.03 1.05 1.10 1.15 1.20
0.84 0.86 0.70 0.65 0.57 0.64 0.61 0.37 0.36 0.87 1.18 0.66 0.47 0.51 0.43 0.40 0.43 0.44 0.45 0.44 0.41 0.40 0.40 0.47 0.56 0.54 0.57 0.61 0.62 0.69 0.69 0.68 0.73 0.75 0.74 0.75 0.75 0.76 0.81 0.87 0.87 0.89 0.94 1.02
0.75 0.76 0.41 0.39 0.43 0.59 0.55 0.38 0.36 0.60 0.60 0.64 0.42 0.39 0.45 0.47 0.53 0.51 0.48 0.41 0.33 0.32 0.34 0.41 0.52 0.57 0.55 0.60 0.62 0.63 0.68 0.73 0.78 0.80 0.79 0.75 0.73 0.73 0.75 0.80 0.81 0.79 0.79 0.80
0.68 0.74 0.49 0.44 0.39 0.51 0.45 0.28 0.27 0.31 0.33 0.37 0.32 0.41 0.41 0.43 0.47 0.49 0.48 0.38 0.29 0.28 0.30 0.33 0.43 0.60 0.56 0.61 0.70 0.71 0.75 0.83 0.86 0.88 0.83 0.79 0.74 0.71 0.68 0.68 0.69 0.69 0.71 0.70
0.71 0.85 0.99 0.72 0.37 0.51 0.52 0.36 0.33 0.33 0.33 0.35 0.43 0.44 0.36 0.40 0.47 0.47 0.41 0.31 0.27 0.27 0.28 0.31 0.37 0.54 0.62 0.66 0.76 0.84 0.87 0.93 0.91 0.91 0.84 0.78 0.73 0.70 0.68 0.64 0.64 0.67 0.70 0.72
0.58 0.84 1.26 1.04 0.66 0.75 0.53 0.36 0.35 0.36 0.36 0.33 0.35 0.32 0.32 0.37 0.40 0.37 0.31 0.28 0.25 0.23 0.24 0.28 0.33 0.40 0.53 0.58 0.66 0.76 0.84 0.96 0.96 0.94 0.92 0.88 0.85 0.85 0.88 0.87 0.88 0.88 0.85 0.88
0.31 0.72 1.21 1.10 0.81 0.47 0.27 0.22 0.33 0.42 0.42 0.33 0.27 0.23 0.20 0.23 0.30 0.35 0.29 0.27 0.28 0.26 0.24 0.25 0.29 0.31 0.37 0.46 0.53 0.62 0.77 0.93 1.06 1.12 1.13 1.13 1.13 1.16 1.18 1.20 1.20 1.19 1.19 1.19
0.25 0.54 1.12 1.09 0.91 0.48 0.28 0.14 0.17 0.32 0.52 0.27 0.20 0.20 0.19 0.19 0.32 0.39 0.34 0.30 0.29 0.27 0.26 0.25 0.26 0.28 0.32 0.42 0.51 0.64 0.85 1.02 1.15 1.22 1.26 1.28 1.34 1.39 1.35 1.31 1.26 1.19 1.16 1.18
0.41 0.70 0.97 0.91 0.88 0.49 0.30 0.15 0.14 0.46 0.61 0.27 0.22 0.23 0.24 0.30 0.37 0.32 0.29 0.31 0.31 0.31 0.34 0.35 0.36 0.39 0.42 0.48 0.59 0.76 0.90 1.04 1.11 1.14 1.17 1.20 1.17 1.18 1.15 1.11 1.06 1.02 0.97 0.92
0.39 0.58 0.63 0.68 0.93 0.68 0.34 0.25 0.44 0.60 0.38 0.29 0.23 0.23 0.25 0.26 0.24 0.21 0.20 0.22 0.25 0.28 0.35 0.43 0.50 0.54 0.54 0.58 0.68 0.77 0.82 0.86 0.87 0.87 0.87 0.88 0.82 0.76 0.76 0.78 0.79 0.77 0.76 0.73
0.45 0.60 0.65 0.70 0.77 0.61 0.46 0.51 0.56 0.46 0.39 0.30 0.26 0.24 0.23 0.23 0.22 0.19 0.16 0.15 0.16 0.17 0.20 0.25 0.34 0.40 0.40 0.41 0.46 0.52 0.50 0.49 0.49 0.49 0.52 0.53 0.52 0.49 0.49 0.53 0.56 0.59 0.61 0.63
0.43 0.40 0.51 0.60 0.55 0.44 0.42 0.42 0.41 0.38 0.38 0.33 0.28 0.26 0.24 0.25 0.22 0.20 0.17 0.15 0.14 0.13 0.15 0.17 0.18 0.21 0.22 0.23 0.25 0.28 0.27 0.25 0.26 0.31 0.35 0.40 0.44 0.45 0.45 0.47 0.51 0.55 0.59 0.62
0.38 0.37 0.48 0.55 0.45 0.39 0.35 0.33 0.34 0.32 0.29 0.27 0.25 0.23 0.23 0.24 0.23 0.21 0.20 0.18 0.17 0.16 0.16 0.18 0.19 0.20 0.21 0.21 0.21 0.22 0.23 0.22 0.23 0.24 0.28 0.33 0.39 0.46 0.48 0.48 0.51 0.58 0.62 0.73
0.38 0.46 0.60 0.61 0.45 0.49 0.42 0.32 0.29 0.28 0.26 0.27 0.27 0.27 0.25 0.24 0.25 0.23 0.22 0.22 0.21 0.21 0.20 0.19 0.21 0.24 0.27 0.28 0.30 0.29 0.29 0.28 0.28 0.29 0.29 0.34 0.39 0.44 0.49 0.52 0.52 0.57 0.62 0.69